Temp_Advection
nan nan nan nan nan nan nan nan nan nan nan nan nan nan nan nan nan nan nan nan nan nan nan nan nan nan nan nan nan nan nan nan nan nan nan nan nan nan nan nan nan nan nan nan nan nan nan nan nan nan nan nan nan nan nan nan nan nan nan nan nan nan nan nan nan nan nan nan nan
nan 2 2 2 2 1 1 1 2 2 2 2 2 2 1 1 0 -0 -1 -1 -1 -1 -0 -0 -0 0 0 0 -0 -0 0 1 0 0 0 0 1 1 1 1 1 1 0 0 0 0 0 0 0 1 1 1 1 1 0 1 1 0 0 0 0 0 0 0 0 0 0 0 nan
nan 2 2 1 0 0 0 0 1 1 2 2 2 2 2 1 1 0 -0 -1 -0 0 0 0 -0 0 0 0 0 0 0 0 -0 -0 -0 0 1 1 0 0 0 0 1 1 1 1 1 1 1 1 0 0 0 0 0 0 0 0 0 0 0 1 0 0 0 0 0 0 nan
nan 1 -0 -1 -0 -0 -0 0 1 1 1 1 1 1 1 1 1 1 0 0 0 0 0 1 0 0 0 -0 -0 -1 -1 -2 -1 -1 -1 -1 -0 -0 -0 0 0 0 0 1 1 1 1 0 0 -0 -0 -0 -0 -0 0 0 0 0 0 0 0 0 0 0 0 0 0 1 nan
nan -1 -0 0 -0 0 1 1 1 0 -0 -0 -0 0 0 0 0 1 1 1 0 -0 -0 0 1 0 -0 -1 -2 -2 -2 -2 -1 -1 -1 -1 -1 -1 -0 0 0 0 0 0 -0 -0 -0 -0 -1 -0 -0 -0 -0 -0 0 0 -0 -0 0 0 -0 -0 -0 0 0 0 1 1 nan
nan 0 1 1 0 0 1 2 1 0 -0 -0 -0 -0 -0 -0 -0 0 0 0 0 0 -0 -0 0 0 -1 -2 -1 -1 -0 -0 -0 -0 -0 -0 -0 -0 -0 0 0 0 0 0 -0 -0 -0 -0 -0 -0 0 0 0 0 0 0 -0 0 0 0 -0 -0 -0 0 0 1 1 1 nan
nan 1 1 1 1 0 0 1 1 0 -0 -0 -0 -0 -0 -0 -0 -0 0 0 0 0 -0 -1 -1 -1 -1 -1 -0 0 1 1 1 1 1 0 0 0 0 0 0 0 0 0 0 -0 -0 -0 -0 0 0 0 0 0 0 0 1 1 1 0 -0 -0 -0 0 1 1 1 1 nan
nan 1 0 0 1 1 0 0 0 1 1 0 -0 -0 -0 -0 -0 -0 -0 -0 0 0 0 -0 -0 -1 -0 0 0 0 0 1 1 1 1 0 0 0 0 0 0 0 0 -0 -0 -1 -0 0 1 1 1 0 1 1 1 1 1 1 1 0 -0 -0 0 1 1 1 1 1 nan
nan 0 -0 -0 0 1 1 0 1 1 1 1 0 0 0 0 -0 -0 -0 0 0 0 0 0 0 0 0 0 0 -0 -0 -0 0 0 0 0 0 0 0 0 0 -0 -0 -1 -1 -0 1 2 2 2 1 1 1 2 2 2 1 1 1 0 0 1 1 1 1 1 1 1 nan
nan 0 0 0 -0 0 0 0 0 1 1 1 1 1 1 1 0 0 0 1 1 1 0 0 0 0 0 0 0 0 -0 -0 -0 0 0 0 0 0 0 -0 -0 -0 -1 -0 1 2 3 3 2 2 2 2 2 2 2 1 1 1 0 0 1 1 1 2 2 1 1 1 nan
nan 0 1 1 0 -0 0 0 0 0 1 1 1 1 1 1 1 0 0 1 1 1 1 1 0 0 0 0 0 0 0 0 0 -0 -0 -0 -0 0 0 0 0 0 1 2 3 3 2 1 1 1 1 1 1 1 1 0 0 0 0 0 1 1 1 1 1 1 1 0 nan
nan 0 0 1 1 0 0 0 0 0 0 0 0 0 1 1 1 1 0 -0 0 0 1 1 1 1 0 0 1 1 1 0 0 -0 -0 0 0 1 1 1 1 2 2 3 2 1 0 0 -0 -0 -0 -0 -0 0 -0 0 0 0 0 0 0 0 0 0 0 0 0 0 nan
nan 0 -0 0 1 1 0 0 0 0 1 1 1 1 1 1 1 0 0 0 0 0 0 1 1 1 1 1 1 1 0 0 0 0 1 1 1 2 2 2 2 2 2 2 1 1 0 -0 -0 -0 -0 -0 -0 -0 -0 -0 -0 -0 -0 0 0 0 -0 -0 -0 -0 0 0 nan
nan 0 -0 -0 0 0 0 0 0 0 1 1 1 1 1 1 0 1 1 0 0 0 0 0 0 0 0 0 0 -0 -0 0 0 1 1 1 1 1 1 1 2 2 2 1 1 1 0 0 0 0 -0 -0 -0 -0 -0 -0 -0 -0 -0 -0 -0 -0 -0 -0 -0 0 1 1 nan
nan 0 0 -0 -0 -0 0 0 0 0 0 1 1 1 1 0 0 1 1 0 0 0 0 -0 -0 -0 -0 -0 -0 -0 0 0 0 0 1 0 0 0 0 1 1 1 1 1 1 1 1 1 0 0 0 0 0 0 -0 -0 -0 -0 -0 -0 -0 -0 -0 -0 0 1 1 1 nan
nan 0 0 0 0 0 0 1 1 1 1 0 0 0 0 0 0 0 0 0 0 -0 -0 -0 -0 -0 0 0 0 1 1 1 1 1 0 0 -0 -0 0 0 1 1 0 0 0 0 0 0 0 -0 -0 -0 -0 0 0 -0 -0 -0 -0 -0 -0 -0 0 0 0 1 1 1 nan
nan -0 0 0 0 0 0 1 1 1 1 0 -0 -0 -0 -0 0 0 0 0 -0 -0 -0 -0 0 0 0 1 1 1 1 1 1 1 1 1 0 0 1 0 0 -0 -0 -0 -0 -0 -0 -0 -0 -0 -1 -1 -0 0 0 -0 -0 -0 -0 -0 -0 0 0 1 1 1 1 1 nan
nan -0 0 0 0 0 0 0 0 0 0 -0 -1 -1 -1 -0 -0 0 0 0 -0 -0 -0 0 0 0 0 0 0 1 1 1 1 1 1 1 1 1 1 0 -0 -0 -1 -1 -1 -1 -0 -0 -0 -1 -1 -1 -1 -0 0 0 -1 -1 -1 -0 0 1 1 1 1 1 1 1 nan
nan 0 0 0 0 0 0 0 0 0 0 -0 -1 -1 -0 -0 0 0 0 0 0 0 0 0 0 0 0 0 0 0 0 0 0 0 0 1 1 1 1 0 0 0 -0 -0 -0 -0 -0 0 0 -0 -0 -1 -1 -0 0 1 0 -1 -2 -1 0 1 1 1 1 1 1 2 nan
nan 0 0 0 0 0 1 0 0 0 -0 -0 -0 -0 0 0 1 1 0 0 0 0 0 1 1 1 1 1 1 1 0 0 0 -0 0 0 0 0 1 1 1 0 0 0 0 0 0 0 0 0 0 -0 -1 -1 0 1 1 -1 -2 -2 -0 1 2 1 1 1 2 3 nan
nan 1 0 0 0 0 0 0 0 0 -0 -0 -0 0 0 1 1 1 0 0 0 0 0 1 1 1 1 1 1 0 0 0 0 0 0 -0 -0 0 0 0 0 0 0 0 0 0 0 0 0 1 0 -0 -1 -1 -1 0 1 -0 -1 -1 -0 1 2 1 1 2 2 3 nan
nan 1 1 1 1 1 0 0 0 0 0 0 0 0 1 1 0 0 -0 -0 -0 -0 0 1 1 1 1 0 0 0 0 0 -0 0 0 -0 0 0 0 0 0 -0 0 0 0 -0 -0 0 1 1 0 -0 -1 -1 -1 -0 0 0 0 -0 1 2 1 1 2 2 2 1 nan
nan 1 1 1 1 1 1 1 1 1 1 0 0 0 0 0 -0 -0 -0 -0 0 1 1 1 1 1 0 0 -0 -0 -0 -0 -0 -0 0 0 0 1 0 0 0 0 0 0 0 -0 0 0 1 0 0 0 0 -0 -0 -0 0 0 0 1 2 2 1 1 1 1 0 -0 nan
nan 0 0 0 0 1 1 1 1 1 1 1 0 0 0 -0 -0 -0 0 1 1 1 1 1 1 0 0 -0 -0 -0 -0 -0 -0 -0 -0 0 0 0 0 0 0 0 0 0 0 0 1 1 0 0 0 0 0 0 0 -0 -0 -1 -0 1 2 2 1 0 0 -0 -0 -0 nan
nan 0 -0 -0 -0 -0 -0 0 0 1 1 1 1 1 1 1 0 0 1 1 1 1 0 0 0 -0 -0 -0 -0 0 0 -0 -0 -0 0 0 0 0 0 0 0 0 0 0 0 1 1 0 0 -0 0 0 0 0 0 0 -0 -0 0 2 2 1 0 -0 -0 -0 0 0 nan
nan 0 0 -0 -0 -1 -1 -1 -0 -0 -0 0 0 0 0 0 0 0 0 0 0 0 0 0 -0 -0 -0 -0 0 -0 -0 -0 -0 -0 0 0 1 1 0 0 0 0 0 1 1 1 1 0 0 0 0 1 1 1 0 0 0 0 1 1 1 0 0 -0 -0 0 0 1 nan
nan -0 -0 -0 -0 -0 -0 -0 -1 -1 -0 -0 -0 -0 -0 -0 -0 0 0 0 0 0 0 0 0 0 0 0 -0 -0 -0 -0 0 0 1 1 1 0 0 0 0 0 1 1 1 1 1 0 0 1 1 1 1 1 0 0 0 1 1 1 1 0 0 0 0 0 1 1 nan
nan -0 -0 -0 -0 -0 -0 -0 -0 -0 -0 -0 -0 -0 -0 -0 -0 0 -0 -0 0 0 0 0 0 0 0 0 0 0 0 0 0 1 1 1 1 0 0 0 0 1 1 1 1 1 1 1 1 1 1 1 1 1 0 0 0 1 1 1 1 1 0 0 1 1 1 1 nan
nan 0 0 -0 -0 -0 -0 -0 -0 -0 -0 -0 -0 -0 -0 -0 0 0 -0 -0 -0 -0 0 0 0 0 0 0 0 0 0 1 1 1 1 1 1 1 0 0 1 1 1 1 1 2 2 2 2 1 1 1 1 1 1 1 1 1 1 1 1 1 1 1 1 1 1 1 nan
nan 0 0 0 0 0 0 0 0 0 0 0 0 0 0 0 0 0 0 0 0 0 0 0 0 0 0 0 0 1 1 1 1 1 1 1 1 0 0 1 1 1 2 2 2 2 1 1 1 0 0 0 0 0 0 1 1 1 1 1 0 0 0 1 1 1 1 0 nan
nan 0 0 0 1 1 1 0 0 0 0 0 0 0 0 0 0 0 0 0 0 0 0 0 0 0 0 0 0 0 1 1 1 1 1 0 0 1 1 1 1 1 1 1 1 1 0 0 -0 -0 -0 -0 0 0 0 0 0 0 0 0 0 0 0 0 0 0 0 0 nan
nan 0 0 0 0 1 1 1 1 0 0 0 0 0 0 0 0 0 0 0 0 0 0 0 0 0 0 0 0 0 0 0 0 0 1 1 1 1 1 1 1 1 1 1 0 0 -0 -0 -0 0 0 0 0 0 0 0 0 0 0 0 0 0 0 0 0 0 0 -0 nan
nan 0 0 0 0 0 0 0 1 1 1 1 0 0 0 0 0 0 0 0 0 0 0 0 0 0 0 0 0 0 0 1 1 1 1 1 1 1 1 1 1 0 0 0 0 0 0 0 0 0 0 0 0 0 0 0 0 0 -0 -0 -0 -0 -0 -0 -0 -0 -0 -0 nan
nan 0 0 0 0 0 0 0 0 0 0 0 0 0 0 0 0 0 0 0 1 1 0 0 0 1 1 1 1 1 1 1 1 1 1 1 1 1 1 0 0 0 0 0 1 0 0 0 0 0 0 0 0 -0 -0 -0 -0 -0 -0 -0 -0 -0 0 0 0 0 -0 0 nan
nan 0 -0 -0 -0 -0 0 0 0 0 0 0 0 0 0 0 1 1 1 1 1 1 0 1 1 1 1 1 1 1 1 1 1 1 1 1 1 0 0 0 0 1 1 1 1 0 0 0 0 -0 -0 -0 -0 -0 -0 -0 -0 -0 0 0 0 0 0 0 0 0 0 0 nan
nan 0 0 -0 -0 -0 -0 -0 -0 -0 0 0 0 0 0 0 1 1 1 1 1 1 1 1 1 1 1 1 1 1 1 1 1 0 0 0 0 0 0 1 1 1 1 1 0 0 0 -0 -0 -0 -0 -0 -0 -0 -0 -0 -0 0 0 0 0 0 0 0 0 0 0 0 nan
nan -0 -0 -0 -0 -0 -0 0 0 0 -0 -0 -0 0 0 0 0 0 0 0 1 1 1 1 0 0 0 0 0 0 0 1 1 1 1 0 0 0 0 0 1 1 0 0 0 -0 -0 -0 -0 -0 -0 -0 0 0 0 0 0 0 0 0 0 0 0 0 0 0 0 0 nan
nan -0 -0 -0 -0 -0 -0 0 0 0 0 0 0 -0 0 0 0 0 0 0 0 0 0 0 0 0 0 0 0 0 0 0 1 1 1 1 1 0 0 0 0 0 -0 -0 -0 -0 -0 -0 -0 -0 0 0 0 0 0 0 0 0 0 0 0 0 0 0 0 0 0 0 nan
nan -0 0 0 -0 -0 -0 0 0 0 0 0 0 0 0 0 0 0 0 0 0 0 0 0 0 0 0 0 0 0 0 0 0 1 1 0 0 0 0 -0 -0 -0 -0 -0 -0 -0 -0 -0 0 0 0 0 0 0 0 0 0 0 0 0 0 0 0 0 0 0 0 0 nan
nan 0 0 0 -0 -0 -0 -0 -0 0 0 0 0 0 0 0 0 0 0 0 0 0 0 0 0 0 0 0 0 0 0 0 0 0 0 0 -0 -0 -0 -0 -0 -0 -0 -0 -0 0 0 0 0 1 0 0 0 0 0 0 0 0 1 1 1 0 0 0 0 0 0 0 nan
nan nan nan nan nan nan nan nan nan nan nan nan nan nan nan nan nan nan nan nan nan nan nan nan nan nan nan nan nan nan nan nan nan nan nan nan nan nan nan nan nan nan nan nan nan nan nan nan nan nan nan nan nan nan nan nan nan nan nan nan nan nan nan nan nan nan nan nan nan
Wind_Speed
43 44 44 43 42 41 40 39 38 37 35 34 33 31 30 29 28 27 27 27 27 27 27 27 28 30 32 33 34 35 35 35 34 34 33 32 32 31 30 30 31 32 33 33 32 32 31 29 28 27 25 24 23 22 22 22 22 22 22 22 22 22 22 23 23 24 24 24 24
44 44 44 44 43 42 41 40 39 38 36 35 34 32 31 29 27 26 26 26 26 26 27 27 28 31 33 36 37 37 37 37 37 36 35 33 32 31 30 29 29 29 30 31 31 30 29 29 28 27 25 25 24 24 23 23 23 23 23 23 23 23 23 23 24 24 24 24 25
44 44 44 44 44 44 42 41 39 38 37 35 34 33 31 30 28 28 27 27 28 29 29 29 30 33 36 39 39 39 39 39 39 38 37 35 33 31 30 28 28 27 28 29 29 29 29 29 28 28 27 26 25 25 25 25 25 25 25 26 26 25 25 25 25 25 25 24 24
43 42 43 45 46 45 43 42 40 39 38 37 35 34 33 31 30 30 29 29 30 31 32 32 33 35 38 40 40 40 40 40 40 39 38 36 34 31 29 28 27 27 27 28 29 29 29 29 29 28 28 27 27 26 26 26 26 27 28 28 27 27 26 25 25 24 24 24 23
41 41 42 45 46 46 44 43 41 40 39 38 37 36 35 34 33 32 32 32 32 32 33 35 35 36 37 39 39 39 39 38 39 38 37 36 33 31 29 28 27 27 27 28 28 29 29 28 28 28 28 27 27 26 26 26 27 28 29 28 28 27 26 25 24 24 23 22 22
39 40 41 43 45 46 45 44 43 42 41 39 38 37 37 36 36 35 35 34 33 32 32 34 37 38 38 37 36 36 36 35 35 35 33 32 30 29 29 28 27 27 27 27 27 27 27 27 28 28 28 27 27 27 26 26 27 28 28 27 27 25 24 24 23 23 22 21 20
37 37 38 40 42 43 44 44 44 43 42 39 37 37 37 37 37 37 36 36 35 33 32 32 35 37 38 37 35 34 33 32 31 30 28 27 27 27 27 27 27 27 27 27 27 27 27 28 29 29 29 28 28 28 27 27 27 27 26 26 25 24 23 23 23 22 22 21 20
35 35 36 37 39 40 42 44 44 44 41 39 37 36 37 37 38 38 38 37 36 35 33 31 31 33 36 36 35 34 33 32 30 29 28 27 27 26 26 26 26 27 27 27 27 28 29 30 30 29 29 29 29 29 28 27 26 25 25 25 24 23 23 23 23 22 22 21 20
34 34 34 34 36 38 40 43 44 42 40 37 36 37 37 37 37 38 38 37 37 36 35 33 31 30 31 33 34 34 34 33 31 30 29 28 28 27 27 27 27 27 27 28 29 30 30 29 27 26 26 27 28 28 27 26 25 24 24 23 23 22 22 23 23 22 21 20 20
33 34 34 33 34 35 37 39 40 38 35 33 34 35 36 36 36 36 35 34 34 34 34 34 33 31 30 29 31 32 32 32 30 29 27 27 27 27 28 28 29 29 30 30 30 29 26 24 22 21 22 24 24 24 24 24 24 24 23 23 23 22 23 23 23 22 21 20 19
29 32 33 33 33 33 34 33 33 31 30 30 31 32 33 32 32 32 31 28 27 28 29 31 32 32 31 29 29 29 29 29 29 27 26 26 27 28 29 30 31 31 31 30 28 24 21 19 17 17 17 18 18 19 20 22 23 24 24 23 23 23 23 23 22 21 20 19 20
26 29 31 32 33 32 31 28 27 26 27 28 29 30 30 29 28 27 26 24 22 22 24 26 28 29 29 29 28 27 27 27 27 27 27 27 28 29 29 30 30 30 29 27 24 21 18 15 14 13 13 13 13 14 16 19 21 23 23 24 24 24 23 23 22 21 20 21 22
25 27 30 32 32 31 29 26 24 23 24 26 27 28 27 26 24 22 22 21 21 21 21 21 23 24 25 25 25 25 25 25 26 27 27 28 28 28 28 27 27 27 26 24 21 18 15 13 11 10 10 10 11 11 12 15 17 20 22 23 23 24 24 23 23 22 23 24 26
26 27 29 31 30 29 27 25 23 22 21 22 22 24 24 23 22 21 20 21 21 22 22 22 21 21 21 21 20 20 21 22 23 24 25 26 26 26 26 26 25 25 24 22 19 16 13 11 9 7 7 8 9 10 11 11 13 16 18 20 21 22 23 23 23 23 24 26 28
28 28 28 28 27 26 26 25 24 23 21 20 19 19 20 21 22 22 22 21 21 21 21 21 21 20 19 17 16 16 16 17 19 21 22 24 25 26 26 25 24 23 21 19 17 15 13 11 8 6 5 6 7 8 9 10 11 12 14 16 18 19 21 22 23 23 24 25 26
30 29 27 26 24 24 25 26 26 26 24 22 19 17 17 19 22 24 24 23 21 19 18 17 17 16 16 15 14 14 15 17 19 21 22 24 25 25 25 24 23 21 20 18 17 16 14 12 10 9 9 9 10 10 10 10 10 11 13 14 16 18 20 21 22 23 24 24 24
31 30 28 25 23 23 23 24 25 26 26 24 22 20 19 19 21 23 24 23 21 18 15 13 13 13 14 14 15 16 17 20 22 24 26 26 27 26 26 24 23 22 21 20 19 18 17 16 15 16 16 16 16 16 15 13 12 12 13 15 17 19 21 23 24 26 27 27 26
30 29 28 26 24 23 23 24 24 25 26 25 23 22 21 21 22 23 24 23 21 18 15 13 12 13 14 15 17 19 20 23 25 27 28 28 28 28 27 26 25 25 24 23 23 23 23 22 22 22 22 22 22 21 20 19 17 16 15 16 18 20 23 25 27 30 31 32 31
29 28 27 26 25 25 24 24 25 26 26 26 25 23 22 23 24 24 24 23 21 20 18 16 15 16 16 17 18 19 21 23 25 26 27 28 29 29 29 28 28 28 27 27 27 27 27 26 25 25 25 25 25 24 23 23 24 22 20 19 20 22 24 27 30 33 36 36 36
27 27 26 26 26 27 28 28 28 29 29 28 27 25 24 24 25 25 24 22 21 21 21 21 20 20 19 19 18 19 20 21 23 24 26 27 28 29 29 29 29 29 29 29 29 28 28 27 26 26 27 27 27 27 26 26 27 26 24 23 23 24 26 29 33 37 39 40 39
21 22 23 24 25 27 30 32 33 34 34 33 32 30 27 25 25 25 24 22 21 22 23 24 24 24 23 21 19 18 18 19 21 23 24 26 27 28 29 29 30 30 29 29 28 27 26 26 25 26 27 27 28 28 28 28 27 27 27 27 27 27 28 31 35 39 40 40 38
16 16 16 17 18 21 24 28 32 34 36 37 38 37 34 30 26 24 23 22 22 24 26 27 28 27 26 23 21 19 18 19 20 21 23 25 26 27 28 28 29 29 29 29 27 26 25 25 25 25 26 26 28 29 30 29 29 29 29 30 30 28 28 31 35 37 37 35 32
19 18 16 15 14 14 16 19 23 27 31 34 37 39 38 35 31 28 25 24 25 27 29 30 30 29 28 26 23 21 19 19 19 20 22 23 25 25 26 26 27 28 29 29 28 26 26 25 25 25 25 26 27 29 30 31 31 31 32 31 29 27 27 30 33 33 30 28 27
20 19 18 17 16 15 14 14 14 17 21 25 28 30 32 31 30 28 27 27 28 29 30 31 31 30 29 28 26 23 20 18 18 19 20 21 22 23 23 24 25 26 28 28 28 28 27 26 25 24 25 26 28 29 29 30 31 31 31 30 27 25 25 28 28 27 25 24 25
19 18 17 16 16 16 16 15 14 14 14 15 17 19 20 21 22 23 24 24 25 27 28 28 28 28 28 28 27 24 21 18 17 18 19 20 20 20 20 21 22 23 25 27 28 28 28 27 26 25 26 27 28 28 27 27 27 28 28 26 23 22 23 25 25 23 23 23 24
17 17 16 15 14 13 13 13 13 12 12 12 12 12 12 13 15 17 19 20 21 22 22 23 24 24 24 24 24 23 20 18 18 18 19 19 20 20 20 20 20 22 23 26 28 29 29 27 26 25 25 25 25 24 23 23 22 23 23 22 21 21 23 23 23 23 23 24 24
17 16 15 15 14 12 11 10 10 9 9 9 9 8 7 7 9 12 15 16 17 18 19 19 19 20 20 20 20 19 18 18 19 20 20 20 21 21 21 21 22 23 25 27 28 29 28 26 25 24 23 22 21 20 20 20 19 20 20 20 21 22 23 23 23 24 24 24 22
15 14 14 14 13 12 11 11 10 9 9 8 8 7 6 6 8 10 11 12 13 14 15 15 16 17 17 18 19 19 19 20 20 21 21 21 22 22 23 23 24 26 27 28 29 28 26 25 23 22 20 19 19 18 18 18 19 19 20 21 22 22 23 23 24 24 23 21 18
12 12 12 12 12 12 12 11 11 10 10 10 10 9 9 9 10 11 11 11 12 12 12 13 14 15 16 17 18 19 20 20 21 21 22 22 22 22 23 24 25 26 26 26 26 25 23 22 21 20 19 18 18 18 18 18 18 18 19 19 19 20 20 21 21 21 19 16 12
10 11 11 12 12 12 13 12 12 12 12 12 12 13 13 13 13 13 13 13 12 12 12 12 12 13 15 16 18 18 19 20 20 21 21 21 20 21 21 21 22 22 23 22 22 21 21 20 19 18 18 17 17 17 17 16 16 15 15 14 14 14 15 15 15 15 13 11 8
9 9 10 11 12 13 13 14 14 14 14 14 14 15 15 15 15 14 14 13 13 12 12 12 12 13 13 15 16 17 17 18 18 18 19 19 19 19 19 19 19 20 20 20 20 19 19 18 17 17 16 16 16 15 15 14 13 12 11 10 10 10 9 9 9 9 8 7 6
5 6 7 8 9 10 11 12 13 13 13 13 13 13 13 13 13 13 13 12 12 12 12 12 12 12 13 13 14 15 16 16 16 17 17 17 17 17 18 18 19 19 19 19 18 18 17 16 15 15 14 14 14 13 12 11 10 9 8 7 7 7 7 6 6 6 6 5 6
4 3 3 4 5 6 8 9 9 10 10 9 9 10 10 11 11 11 11 11 11 12 12 12 12 12 12 12 13 14 15 15 15 15 16 16 17 17 18 18 19 18 18 17 17 16 15 14 13 12 11 11 10 10 9 8 8 7 6 6 6 5 5 5 5 6 6 6 7
7 6 5 4 3 3 4 5 6 6 6 6 6 7 8 8 9 10 10 10 10 10 10 10 11 11 11 11 12 13 13 14 14 15 15 16 17 17 18 18 18 17 17 16 15 14 12 11 10 9 8 8 7 7 7 7 7 7 7 6 6 6 6 6 6 6 7 8 10
10 10 9 8 6 5 4 4 4 4 4 4 4 5 6 6 7 8 8 8 8 8 9 9 10 10 10 11 11 12 12 13 14 15 15 16 16 16 17 17 17 16 15 14 13 11 9 8 7 7 7 7 7 8 8 8 8 7 7 7 6 6 6 7 7 8 9 10 11
11 11 11 10 9 9 8 7 6 6 5 5 5 5 5 5 6 6 7 7 8 8 9 9 10 10 11 11 11 12 12 13 14 14 15 15 16 16 16 16 16 15 14 12 11 9 8 7 7 8 8 8 8 8 8 8 7 7 6 6 6 6 6 7 7 8 9 10 10
11 11 11 11 11 11 10 10 9 9 8 8 7 7 7 7 7 7 7 7 8 9 9 10 10 11 11 11 12 12 13 13 14 14 15 15 15 15 14 14 14 13 12 11 10 9 8 8 9 9 9 9 9 8 8 7 7 7 6 6 7 7 7 8 8 9 9 10 10
11 10 10 11 11 11 11 10 10 9 9 9 9 8 8 8 8 8 8 8 8 9 9 10 11 11 11 11 12 12 13 13 13 14 14 13 13 13 12 12 11 11 11 10 10 10 10 10 10 10 10 10 9 9 8 8 7 7 7 7 8 8 8 9 9 9 10 10 10
10 9 9 9 9 9 9 9 8 8 8 8 8 7 7 7 8 8 8 8 8 8 8 9 9 10 10 11 11 11 12 12 12 12 12 12 11 11 11 11 11 11 11 11 11 11 11 11 11 11 10 10 9 9 9 8 8 8 8 8 9 9 9 9 9 9 10 10 10
8 7 7 6 6 6 6 6 6 6 5 5 5 5 5 5 6 6 6 6 6 7 7 7 8 8 8 9 9 9 10 10 11 11 11 11 11 11 11 11 11 11 12 12 12 12 12 11 11 11 10 10 9 9 8 8 8 8 8 8 9 8 8 9 9 9 9 9 9
7 6 5 5 4 4 3 3 3 3 3 3 3 3 3 3 3 3 3 4 5 5 5 6 6 6 7 7 8 9 9 10 11 11 12 12 13 13 12 12 12 12 12 12 12 11 11 11 10 10 9 9 9 8 8 8 8 8 8 8 8 8 8 8 9 9 9 10 10
Wind_Direction
200 199 197 195 193 191 191 190 190 190 191 191 191 193 195 195 195 195 196 196 196 195 194 194 196 197 195 193 189 186 184 184 184 186 187 188 189 189 188 187 188 189 191 194 195 196 197 199 200 201 203 204 205 206 207 207 207 207 207 208 208 209 211 213 215 218 221 224 227
199 197 195 192 190 188 187 186 184 183 184 185 186 188 189 190 190 190 190 189 188 185 183 183 186 186 184 182 181 181 182 183 185 186 187 189 189 189 188 187 188 189 192 194 196 197 198 200 201 202 204 206 207 208 208 209 210 211 212 212 213 213 214 216 218 221 224 226 228
198 196 194 190 188 186 185 182 180 178 178 179 181 182 183 184 185 185 184 183 182 180 178 178 179 179 177 177 179 181 184 185 186 187 188 189 189 189 188 186 186 188 190 193 195 197 198 200 202 204 206 207 208 209 210 212 214 216 218 218 218 218 219 220 222 225 227 228 227
197 196 193 188 185 184 183 180 177 176 176 177 177 178 178 179 180 180 180 180 181 180 178 176 176 176 176 177 180 184 186 188 187 187 187 187 186 186 186 185 185 186 189 191 194 196 198 200 202 204 206 208 209 210 212 215 218 221 222 222 222 221 222 223 224 226 226 225 222
196 194 190 185 182 180 179 177 175 174 175 176 176 177 178 179 179 179 179 179 182 183 181 176 176 177 178 181 183 184 185 186 184 183 182 182 181 181 182 184 185 187 189 192 194 196 198 201 203 205 207 209 211 213 216 219 222 224 224 222 221 221 221 221 222 222 221 219 215
194 191 187 183 179 176 174 172 172 173 175 175 176 177 179 180 180 180 180 180 183 185 183 178 177 178 181 184 183 180 180 181 177 175 175 176 177 179 181 185 187 190 192 195 196 198 201 204 207 209 210 212 213 216 219 222 224 224 222 220 218 217 217 217 217 216 214 211 210
191 188 184 181 177 173 170 169 171 173 174 175 176 177 179 180 181 181 181 181 182 184 185 182 179 178 180 181 180 177 178 181 179 178 178 181 182 184 187 190 193 196 198 200 201 203 206 208 210 211 213 214 216 218 220 221 221 219 217 214 212 212 212 212 212 210 207 206 208
186 183 182 180 176 172 169 169 171 173 174 175 176 177 179 179 180 180 181 181 182 184 185 185 181 177 174 173 174 176 181 185 187 188 189 190 192 195 197 199 201 203 204 205 206 208 209 209 208 208 209 213 216 217 217 216 213 211 209 207 206 206 206 206 205 204 203 205 209
180 179 177 177 175 172 170 170 172 173 174 173 173 174 176 176 177 177 177 177 179 180 182 184 183 178 173 170 170 174 180 185 188 190 192 194 198 201 205 207 208 209 209 209 210 209 207 203 199 199 202 208 211 211 209 207 204 202 201 201 200 200 200 200 199 199 201 206 210
177 176 175 174 174 172 170 170 171 171 170 169 167 167 169 171 171 172 171 171 171 172 174 179 181 180 177 175 173 174 177 180 184 188 192 196 200 204 208 211 212 212 212 211 209 205 199 192 189 190 196 201 203 203 201 199 197 196 195 194 193 192 192 193 194 196 201 208 212
177 176 175 174 174 172 171 170 170 169 167 164 162 162 164 166 167 167 168 167 166 166 167 171 177 180 181 181 181 179 179 180 183 188 193 197 200 203 206 208 210 210 210 206 201 192 182 175 174 179 185 190 194 197 198 197 196 194 192 190 189 188 189 190 192 196 203 211 216
180 177 175 174 173 172 170 169 169 168 167 164 162 161 162 164 165 167 168 169 170 170 169 169 173 178 181 183 183 184 185 186 188 191 194 197 198 199 200 201 202 202 199 193 183 172 164 162 165 171 176 181 186 192 197 198 198 196 194 192 190 189 190 192 196 201 209 216 221
186 179 175 173 171 171 171 170 170 169 169 169 167 165 164 165 168 172 175 177 181 184 183 179 178 181 184 185 186 189 191 193 194 195 196 195 194 193 192 190 189 187 183 176 168 162 160 163 168 176 182 188 193 196 198 199 199 199 198 197 196 196 197 200 203 209 217 224 225
190 182 176 174 174 175 177 178 178 178 179 179 177 173 170 170 175 180 184 187 192 196 198 195 192 192 193 194 195 196 198 199 198 196 193 190 187 184 181 178 176 174 172 169 168 168 169 169 170 176 189 201 208 212 211 209 205 204 203 204 204 205 207 209 212 218 225 230 229
193 185 180 179 183 188 191 193 193 193 193 194 194 188 182 180 183 186 189 194 199 203 204 202 201 202 204 206 207 207 205 203 199 195 190 185 181 177 174 173 172 173 174 177 179 181 182 182 183 191 207 222 229 232 231 229 225 220 217 216 217 218 219 220 221 223 226 230 231
194 190 187 188 193 198 202 204 204 203 202 203 205 204 200 194 191 189 191 196 201 204 203 201 200 202 204 207 209 209 208 204 201 197 193 188 184 181 179 179 181 184 188 192 194 196 199 205 215 228 242 251 257 259 258 255 249 243 240 238 237 235 233 231 228 225 224 225 227
194 194 195 196 198 200 202 204 205 205 205 206 208 210 211 207 201 196 194 197 200 201 198 195 193 193 195 197 200 202 203 201 199 198 197 195 193 192 191 192 196 200 204 207 212 217 224 232 241 249 256 260 264 267 270 272 271 265 259 255 253 251 246 240 234 228 224 223 224
190 194 197 200 202 202 202 202 202 203 203 205 207 210 212 212 208 203 200 200 201 202 201 194 187 185 189 193 197 200 201 200 199 199 199 199 200 201 202 204 208 211 214 217 223 229 236 243 250 257 262 264 265 267 270 274 278 277 273 268 264 260 254 245 236 229 224 223 223
189 195 201 205 208 211 212 211 209 206 204 204 206 207 208 208 206 204 203 203 205 208 209 204 192 185 185 190 195 199 202 203 203 203 203 204 205 207 209 212 215 217 219 222 226 231 237 243 250 257 262 264 263 263 265 269 272 276 279 277 273 266 258 247 236 229 224 222 223
193 200 206 211 216 221 224 225 223 218 213 209 207 206 204 202 200 199 199 201 204 208 209 206 195 187 185 187 191 196 201 205 208 209 210 210 211 212 214 215 217 219 222 224 227 231 236 243 250 256 260 261 259 257 258 261 265 271 277 278 277 272 261 247 236 229 224 222 223
182 191 199 207 214 221 227 229 230 228 224 219 215 212 210 205 200 197 196 197 199 201 201 198 192 188 189 191 193 196 201 205 210 213 215 216 217 217 217 218 219 220 222 225 228 232 239 247 255 259 260 258 254 251 250 252 258 265 270 273 275 272 261 246 234 227 224 223 225
146 155 166 179 193 206 215 221 225 227 226 225 222 220 219 218 214 209 204 201 200 199 197 195 192 190 191 195 198 201 202 204 208 213 217 220 222 223 224 224 224 224 225 226 230 237 247 257 262 263 260 256 251 246 243 243 247 254 261 266 269 267 256 240 230 224 223 225 230
115 118 123 131 144 163 182 198 207 212 216 218 219 220 221 222 223 222 219 214 208 204 202 200 199 197 196 197 198 201 203 206 208 212 217 221 224 227 229 230 231 230 229 230 234 244 254 261 264 262 258 253 248 244 240 238 239 245 253 259 262 258 247 233 225 223 225 230 237
108 109 110 111 114 120 130 146 165 182 193 199 203 206 208 211 214 217 218 216 212 210 209 209 207 205 204 203 201 201 204 208 210 214 218 222 225 227 229 230 231 231 232 234 240 248 255 259 259 256 251 247 244 241 238 235 234 238 245 251 252 246 235 227 223 224 230 238 243
111 112 112 112 112 112 113 116 123 134 148 161 171 178 183 189 196 202 207 210 212 213 214 214 213 212 210 208 207 206 207 208 212 216 220 222 224 225 225 226 227 230 233 237 243 248 252 253 251 247 244 242 239 236 232 230 229 232 236 240 238 232 226 223 224 229 237 243 246
120 123 125 125 125 124 123 122 122 124 127 132 139 147 158 171 184 192 198 202 206 209 211 212 212 212 212 212 211 210 211 212 215 218 221 223 224 224 224 225 227 230 234 238 242 245 246 245 242 240 238 237 234 231 226 221 221 223 225 226 224 222 222 224 229 235 241 245 246
139 141 144 145 146 147 147 146 146 146 145 144 144 148 158 178 193 196 195 196 199 202 205 207 209 210 211 212 212 212 213 214 216 219 222 224 227 227 228 229 230 232 234 237 239 240 239 237 234 232 231 230 227 224 219 216 213 214 214 215 216 218 222 227 232 236 240 241 240
159 161 162 162 164 166 167 167 170 173 175 175 176 178 185 202 214 213 207 203 202 203 205 208 209 210 211 211 212 213 214 215 218 220 223 226 229 230 231 232 233 233 234 235 235 233 230 226 223 221 220 219 217 216 214 213 211 211 211 212 215 219 223 227 230 233 233 233 229
180 181 181 182 183 183 183 185 188 192 195 197 200 202 206 214 223 228 228 225 222 218 215 214 212 211 211 211 213 214 216 219 222 223 224 225 227 229 230 232 233 233 232 231 228 224 219 215 212 210 208 208 208 208 208 208 208 208 209 211 214 219 222 225 226 226 225 222 219
196 197 198 200 201 201 202 203 204 206 208 211 213 215 217 220 223 226 229 230 231 231 230 226 222 217 213 211 212 215 219 222 224 224 223 222 223 224 225 227 228 227 224 221 216 211 207 204 202 201 200 201 202 202 202 201 201 202 203 206 210 215 219 221 221 220 217 215 215
197 202 205 207 208 209 211 211 213 214 216 218 219 220 220 220 221 221 223 225 227 231 233 234 232 227 220 214 212 214 217 220 221 221 220 218 216 215 215 216 216 214 211 206 203 200 198 197 197 197 198 199 199 198 197 196 195 194 195 199 203 209 213 216 217 218 218 220 223
184 197 205 208 209 209 210 210 212 214 216 218 219 219 219 219 219 220 222 224 227 229 232 233 233 230 225 218 211 209 211 214 215 214 212 209 206 204 203 203 202 201 199 196 195 194 194 195 196 196 197 196 195 193 191 190 188 188 189 193 198 204 211 219 228 235 241 246 249
140 161 181 193 201 204 206 206 206 208 210 213 216 218 220 221 222 223 225 228 231 231 231 230 229 226 222 215 208 204 204 205 205 203 199 196 194 193 193 193 193 193 193 192 192 192 192 193 193 192 191 189 188 186 184 182 182 183 186 192 198 205 213 221 230 239 247 251 252
99 101 104 111 136 169 187 195 197 198 200 204 210 215 219 221 222 223 225 226 227 226 225 223 221 217 212 207 202 198 195 194 192 190 187 186 186 188 189 190 191 191 190 189 188 188 188 188 187 185 184 183 181 180 179 178 179 181 184 190 196 202 206 210 214 220 225 230 234
86 87 88 89 94 104 120 137 151 160 167 174 184 194 201 206 209 211 211 211 209 207 206 205 203 200 197 193 190 188 187 185 183 181 181 181 184 187 190 191 191 190 188 185 184 184 183 183 182 182 182 181 181 180 179 178 178 180 183 188 193 198 202 204 208 211 215 220 224
80 83 84 86 89 93 97 101 105 110 115 119 129 143 156 167 174 178 180 181 181 182 182 183 183 183 182 181 180 180 180 181 180 180 182 184 187 190 192 192 190 186 183 180 180 180 181 182 183 184 185 185 185 184 182 182 182 184 188 194 200 205 208 211 214 218 221 225 228
75 78 81 84 87 90 91 94 97 99 101 104 108 114 123 133 141 147 152 157 161 165 168 171 173 175 176 177 178 178 179 181 182 183 185 187 190 192 193 192 189 183 178 175 177 180 183 185 187 189 189 189 189 189 189 190 192 196 201 206 212 217 221 223 225 227 229 231 233
74 75 78 83 88 91 93 95 98 100 103 105 108 113 119 126 133 138 143 149 156 162 166 169 172 174 177 178 180 180 180 181 183 185 187 189 191 194 196 194 189 181 175 174 178 183 188 191 192 193 192 192 193 194 196 197 201 205 210 214 219 223 226 227 228 229 231 232 234
81 81 82 85 90 94 98 101 103 104 106 110 115 119 125 132 138 142 147 154 162 168 172 175 177 179 181 183 183 184 184 185 186 187 189 191 194 197 199 197 190 182 177 178 182 187 191 194 195 196 196 196 197 198 200 201 204 209 213 216 220 223 225 227 228 229 230 232 234
78 79 80 81 85 90 96 101 104 105 108 112 117 123 130 138 143 148 155 164 173 180 185 188 190 191 191 191 191 191 193 193 193 192 193 195 197 199 200 198 192 185 180 181 185 189 193 196 198 199 199 199 200 201 203 204 206 209 211 215 218 220 223 227 229 231 232 233 235
52 52 53 54 57 63 72 82 90 95 102 109 115 123 134 147 154 160 169 178 189 195 200 203 205 204 202 199 199 199 201 202 201 200 199 198 199 200 200 199 194 188 184 184 187 191 196 199 200 201 202 202 203 204 205 206 206 207 209 212 216 220 224 229 233 235 236 235 235
Height
1419 1421 1423 1425 1426 1428 1430 1431 1432 1434 1436 1438 1440 1443 1445 1447 1449 1451 1452 1454 1455 1456 1457 1459 1460 1462 1464 1467 1469 1471 1473 1474 1475 1477 1478 1480 1482 1483 1485 1487 1490 1492 1494 1495 1497 1498 1500 1501 1502 1504 1505 1506 1507 1508 1509 1510 1511 1513 1514 1515 1516 1516 1517 1518 1519 1520 1521 1522 1523
1418 1420 1422 1424 1426 1428 1429 1430 1431 1433 1435 1437 1439 1441 1443 1445 1447 1449 1451 1452 1454 1455 1457 1458 1460 1461 1463 1466 1468 1470 1471 1472 1474 1475 1477 1479 1481 1482 1484 1486 1488 1491 1493 1495 1496 1498 1499 1500 1502 1503 1504 1505 1506 1507 1508 1509 1510 1511 1512 1513 1514 1515 1516 1517 1518 1519 1520 1520 1522
1417 1419 1421 1424 1425 1427 1428 1429 1430 1431 1434 1435 1438 1440 1442 1444 1446 1448 1450 1451 1453 1455 1456 1458 1460 1461 1463 1465 1467 1469 1470 1471 1472 1474 1476 1478 1480 1481 1483 1485 1488 1490 1492 1494 1495 1497 1498 1499 1500 1501 1502 1503 1504 1505 1506 1507 1508 1510 1510 1511 1512 1513 1514 1515 1516 1517 1518 1519 1520
1416 1419 1421 1422 1424 1425 1426 1428 1429 1431 1433 1435 1437 1439 1441 1443 1445 1447 1449 1451 1453 1455 1457 1458 1460 1461 1463 1465 1467 1468 1470 1470 1472 1473 1475 1477 1478 1480 1482 1485 1487 1489 1491 1493 1494 1495 1497 1498 1499 1500 1501 1502 1503 1504 1505 1506 1507 1508 1509 1510 1510 1511 1512 1513 1514 1515 1517 1518 1519
1416 1418 1420 1420 1422 1424 1425 1427 1429 1431 1433 1434 1436 1438 1440 1443 1445 1447 1449 1451 1453 1455 1456 1458 1460 1461 1463 1465 1466 1468 1469 1470 1471 1472 1474 1475 1477 1479 1481 1484 1486 1488 1490 1492 1493 1494 1495 1497 1498 1499 1500 1501 1502 1503 1503 1504 1505 1506 1507 1508 1509 1510 1510 1511 1512 1514 1515 1517 1518
1415 1417 1418 1419 1421 1423 1424 1426 1429 1430 1432 1434 1436 1438 1440 1443 1445 1447 1449 1450 1452 1455 1456 1458 1460 1462 1463 1465 1466 1467 1469 1470 1471 1471 1473 1473 1475 1478 1481 1483 1485 1487 1489 1490 1492 1493 1495 1496 1497 1498 1499 1500 1500 1501 1502 1503 1504 1505 1505 1506 1507 1508 1508 1510 1511 1512 1514 1516 1517
1414 1415 1416 1418 1420 1422 1424 1426 1428 1430 1432 1434 1435 1438 1440 1442 1445 1447 1449 1450 1453 1455 1456 1458 1460 1461 1463 1465 1466 1468 1470 1471 1472 1472 1472 1473 1475 1477 1480 1482 1484 1486 1488 1489 1490 1492 1493 1495 1495 1496 1497 1498 1499 1500 1501 1502 1502 1503 1504 1505 1505 1506 1506 1508 1509 1511 1513 1515 1516
1413 1415 1416 1417 1419 1421 1423 1425 1427 1429 1431 1434 1436 1438 1440 1442 1444 1446 1448 1450 1453 1455 1456 1458 1459 1460 1462 1463 1465 1467 1470 1471 1472 1471 1471 1472 1475 1477 1479 1481 1483 1485 1486 1488 1490 1491 1492 1493 1494 1495 1495 1497 1498 1498 1499 1500 1501 1502 1503 1503 1504 1504 1505 1506 1508 1510 1512 1514 1515
1413 1415 1416 1418 1419 1421 1423 1425 1427 1429 1431 1433 1435 1438 1440 1442 1444 1446 1448 1450 1452 1454 1456 1458 1459 1460 1461 1462 1464 1467 1469 1471 1471 1471 1470 1472 1474 1476 1479 1480 1482 1484 1485 1487 1488 1489 1490 1491 1492 1493 1494 1495 1496 1497 1498 1499 1500 1500 1501 1502 1502 1502 1503 1504 1506 1509 1511 1513 1515
1412 1414 1416 1418 1420 1421 1423 1425 1426 1429 1431 1433 1435 1437 1439 1441 1443 1445 1447 1449 1451 1454 1455 1457 1459 1460 1462 1463 1464 1466 1468 1470 1470 1470 1470 1471 1473 1475 1477 1480 1481 1483 1484 1486 1487 1488 1488 1489 1490 1492 1493 1494 1495 1496 1497 1498 1499 1499 1500 1500 1500 1501 1502 1503 1505 1507 1510 1512 1514
1412 1414 1416 1418 1420 1422 1423 1425 1427 1429 1431 1433 1435 1437 1439 1441 1443 1445 1447 1449 1451 1453 1454 1455 1458 1459 1461 1462 1464 1465 1467 1468 1468 1468 1469 1470 1472 1475 1477 1479 1480 1482 1483 1484 1485 1486 1487 1489 1490 1491 1492 1493 1494 1495 1496 1497 1497 1497 1498 1498 1499 1500 1501 1502 1504 1505 1508 1510 1512
1413 1415 1416 1418 1420 1422 1423 1425 1427 1429 1431 1434 1435 1438 1439 1441 1443 1445 1447 1449 1451 1453 1454 1455 1456 1457 1459 1461 1463 1465 1466 1467 1467 1467 1468 1470 1471 1474 1475 1478 1479 1481 1482 1483 1484 1485 1487 1488 1489 1490 1491 1493 1494 1495 1496 1496 1496 1496 1496 1496 1497 1498 1500 1501 1502 1504 1507 1509 1511
1413 1415 1417 1419 1420 1422 1424 1425 1427 1429 1432 1434 1436 1438 1439 1441 1443 1445 1447 1450 1452 1454 1454 1455 1455 1456 1458 1460 1461 1463 1465 1465 1466 1466 1467 1469 1471 1473 1475 1476 1478 1480 1481 1483 1484 1485 1486 1487 1488 1490 1491 1492 1494 1495 1495 1495 1495 1495 1495 1495 1496 1497 1498 1500 1501 1503 1505 1508 1510
1414 1415 1417 1419 1420 1422 1423 1425 1427 1430 1432 1434 1436 1437 1439 1441 1443 1445 1447 1449 1452 1453 1454 1455 1455 1456 1457 1459 1460 1462 1464 1465 1465 1466 1467 1469 1470 1472 1474 1475 1477 1479 1481 1483 1484 1484 1485 1486 1487 1488 1490 1492 1493 1494 1494 1494 1494 1494 1494 1495 1496 1496 1497 1498 1500 1501 1503 1506 1508
1414 1416 1417 1419 1420 1422 1423 1425 1427 1430 1432 1434 1436 1437 1439 1441 1443 1445 1447 1449 1451 1452 1453 1454 1455 1456 1457 1458 1459 1461 1462 1464 1465 1466 1467 1469 1470 1471 1473 1475 1477 1479 1480 1482 1483 1483 1484 1484 1485 1486 1488 1490 1491 1492 1493 1493 1493 1493 1493 1494 1495 1495 1496 1497 1498 1500 1501 1504 1506
1414 1416 1417 1419 1420 1421 1423 1425 1427 1429 1431 1433 1435 1437 1439 1441 1443 1445 1447 1449 1450 1451 1451 1452 1453 1455 1456 1457 1458 1460 1461 1462 1464 1466 1467 1469 1470 1471 1473 1475 1476 1478 1479 1480 1481 1482 1482 1482 1483 1484 1486 1488 1489 1490 1491 1491 1491 1491 1491 1492 1493 1494 1495 1496 1497 1498 1500 1501 1504
1414 1416 1417 1419 1420 1422 1423 1425 1427 1429 1431 1433 1435 1437 1439 1441 1443 1444 1446 1447 1448 1449 1450 1451 1452 1453 1454 1455 1457 1458 1460 1461 1463 1465 1466 1468 1470 1471 1472 1474 1475 1477 1478 1479 1480 1480 1480 1481 1481 1482 1484 1485 1486 1487 1488 1489 1489 1489 1490 1490 1491 1492 1493 1494 1495 1496 1498 1499 1501
1414 1416 1417 1419 1420 1422 1424 1425 1427 1429 1430 1433 1435 1436 1438 1440 1442 1443 1445 1445 1447 1448 1449 1450 1451 1452 1454 1455 1456 1458 1459 1461 1462 1464 1465 1467 1469 1470 1471 1473 1474 1475 1476 1477 1478 1479 1479 1480 1480 1480 1481 1482 1484 1485 1485 1486 1486 1487 1487 1488 1490 1490 1491 1493 1494 1495 1496 1497 1498
1414 1415 1417 1419 1420 1422 1423 1425 1426 1428 1430 1432 1434 1436 1438 1439 1441 1442 1443 1445 1445 1447 1448 1450 1451 1452 1453 1455 1456 1458 1459 1461 1462 1464 1465 1466 1468 1469 1470 1471 1473 1474 1475 1475 1476 1477 1477 1478 1478 1479 1480 1480 1481 1483 1483 1484 1485 1485 1485 1486 1487 1489 1490 1490 1491 1492 1494 1495 1496
1413 1415 1417 1419 1420 1421 1422 1424 1425 1427 1429 1431 1433 1435 1437 1438 1440 1441 1442 1443 1445 1446 1447 1449 1450 1451 1453 1454 1456 1458 1459 1461 1462 1463 1465 1466 1467 1468 1469 1470 1471 1472 1473 1473 1474 1475 1476 1476 1477 1477 1478 1479 1479 1480 1481 1483 1483 1483 1483 1484 1485 1486 1487 1488 1489 1490 1491 1492 1493
1414 1416 1417 1419 1420 1420 1422 1423 1424 1426 1428 1430 1432 1434 1435 1437 1438 1440 1441 1442 1444 1445 1446 1448 1449 1450 1451 1453 1455 1456 1458 1460 1461 1462 1464 1465 1465 1466 1467 1468 1469 1470 1471 1472 1472 1473 1474 1474 1475 1475 1476 1476 1477 1478 1479 1480 1481 1482 1482 1483 1483 1484 1485 1486 1486 1487 1488 1490 1491
1415 1416 1417 1418 1419 1420 1421 1422 1423 1425 1426 1428 1430 1432 1434 1436 1437 1439 1440 1441 1443 1445 1446 1447 1448 1449 1450 1451 1453 1454 1456 1458 1460 1461 1462 1463 1464 1465 1465 1466 1467 1469 1470 1470 1471 1471 1472 1473 1473 1473 1474 1474 1475 1475 1476 1477 1479 1480 1481 1481 1482 1482 1483 1484 1485 1486 1487 1488 1490
1416 1417 1418 1418 1419 1420 1421 1421 1422 1424 1425 1426 1428 1430 1433 1435 1437 1438 1440 1441 1443 1444 1445 1446 1447 1448 1449 1450 1451 1453 1454 1456 1458 1459 1460 1462 1463 1464 1464 1465 1466 1467 1468 1469 1470 1470 1471 1471 1471 1472 1472 1472 1472 1473 1473 1474 1476 1478 1480 1480 1480 1480 1481 1483 1484 1485 1486 1488 1489
1417 1418 1419 1420 1420 1421 1421 1422 1423 1424 1425 1426 1427 1429 1431 1434 1436 1438 1440 1441 1442 1443 1444 1445 1446 1447 1448 1449 1450 1451 1453 1454 1456 1457 1459 1460 1461 1462 1463 1464 1465 1465 1466 1467 1468 1469 1469 1470 1470 1470 1470 1470 1470 1471 1471 1472 1473 1475 1477 1478 1478 1479 1480 1482 1483 1485 1485 1487 1488
1419 1420 1420 1421 1421 1422 1423 1423 1424 1425 1425 1427 1428 1429 1431 1433 1435 1437 1438 1440 1441 1442 1443 1444 1445 1446 1447 1448 1449 1450 1452 1453 1454 1455 1457 1458 1459 1460 1461 1462 1463 1464 1465 1465 1466 1467 1468 1468 1468 1469 1469 1469 1469 1469 1470 1470 1471 1473 1475 1475 1476 1477 1479 1481 1482 1483 1484 1485 1486
1420 1421 1422 1423 1423 1424 1424 1425 1425 1426 1426 1427 1429 1430 1431 1433 1434 1435 1437 1439 1440 1441 1442 1443 1444 1445 1446 1447 1448 1449 1450 1451 1452 1454 1455 1456 1457 1458 1459 1460 1461 1462 1463 1464 1465 1465 1466 1466 1467 1467 1467 1467 1468 1468 1469 1469 1470 1471 1472 1473 1475 1476 1478 1480 1481 1482 1483 1484 1485
1422 1423 1424 1424 1425 1425 1425 1426 1426 1427 1427 1428 1429 1430 1431 1432 1433 1435 1436 1437 1439 1440 1441 1442 1443 1444 1445 1446 1447 1448 1449 1450 1451 1452 1454 1455 1456 1457 1457 1458 1459 1460 1461 1462 1463 1464 1464 1465 1465 1466 1466 1466 1467 1467 1468 1468 1469 1470 1470 1472 1473 1475 1477 1478 1479 1480 1481 1482 1483
1423 1424 1424 1425 1425 1426 1426 1427 1427 1428 1428 1429 1430 1430 1431 1432 1433 1434 1435 1436 1438 1439 1440 1441 1442 1443 1444 1445 1446 1447 1448 1449 1450 1451 1452 1453 1454 1455 1456 1457 1458 1459 1460 1460 1461 1462 1463 1464 1465 1465 1465 1466 1466 1467 1467 1468 1468 1469 1470 1471 1472 1474 1475 1476 1477 1478 1480 1480 1481
1424 1424 1425 1425 1426 1427 1427 1428 1428 1429 1429 1430 1430 1431 1431 1432 1433 1434 1435 1436 1437 1438 1439 1440 1441 1442 1443 1444 1445 1446 1447 1448 1449 1450 1451 1452 1453 1454 1455 1456 1457 1458 1458 1459 1460 1461 1462 1463 1464 1465 1465 1466 1466 1466 1467 1467 1468 1468 1469 1470 1472 1473 1474 1475 1476 1477 1478 1479 1480
1424 1424 1425 1425 1426 1427 1427 1428 1429 1429 1430 1430 1430 1431 1432 1432 1433 1434 1434 1435 1436 1437 1438 1439 1440 1441 1442 1443 1444 1445 1446 1447 1448 1449 1450 1451 1452 1453 1454 1455 1456 1457 1458 1459 1460 1461 1462 1463 1464 1464 1465 1465 1465 1465 1466 1466 1467 1468 1469 1470 1471 1472 1473 1474 1475 1476 1477 1477 1478
1423 1424 1425 1425 1425 1426 1427 1428 1428 1429 1430 1430 1430 1431 1431 1432 1432 1433 1434 1435 1436 1437 1438 1438 1439 1440 1441 1442 1444 1445 1445 1446 1447 1448 1449 1450 1451 1452 1453 1454 1455 1456 1458 1459 1460 1461 1462 1462 1463 1463 1464 1464 1465 1465 1465 1466 1467 1467 1469 1470 1471 1472 1473 1473 1474 1475 1475 1476 1477
1423 1423 1424 1424 1425 1425 1426 1426 1427 1428 1429 1429 1430 1430 1430 1431 1432 1433 1434 1435 1435 1436 1437 1438 1439 1440 1440 1441 1442 1444 1445 1445 1446 1447 1448 1449 1450 1451 1453 1454 1455 1456 1457 1458 1459 1460 1461 1462 1462 1462 1463 1463 1464 1464 1465 1465 1466 1467 1468 1469 1470 1471 1472 1472 1473 1474 1474 1475 1476
1422 1423 1423 1424 1424 1425 1425 1426 1426 1427 1428 1428 1429 1430 1430 1430 1431 1432 1433 1434 1435 1436 1437 1438 1439 1439 1440 1441 1442 1443 1444 1445 1445 1446 1448 1449 1450 1451 1452 1454 1455 1456 1457 1458 1459 1460 1460 1461 1461 1461 1462 1462 1463 1463 1464 1464 1465 1466 1467 1468 1469 1470 1470 1471 1472 1473 1474 1475 1476
1423 1423 1423 1424 1424 1425 1425 1426 1426 1427 1427 1428 1429 1429 1430 1430 1431 1432 1433 1434 1435 1435 1436 1437 1438 1439 1440 1440 1441 1442 1443 1444 1445 1446 1447 1449 1450 1451 1452 1453 1455 1455 1456 1457 1458 1459 1459 1460 1460 1460 1461 1461 1462 1462 1463 1464 1465 1465 1466 1467 1468 1469 1470 1471 1471 1472 1473 1475 1476
1423 1423 1424 1424 1425 1425 1425 1426 1426 1427 1427 1428 1429 1429 1430 1430 1431 1432 1432 1433 1434 1435 1436 1437 1438 1439 1440 1440 1441 1442 1443 1445 1445 1446 1447 1449 1450 1451 1452 1453 1454 1455 1456 1456 1457 1458 1458 1458 1459 1460 1460 1461 1461 1462 1463 1464 1465 1465 1466 1467 1468 1469 1470 1470 1471 1472 1473 1474 1475
1424 1424 1425 1425 1425 1426 1426 1427 1427 1428 1428 1428 1429 1429 1430 1430 1431 1432 1433 1434 1434 1435 1436 1437 1438 1439 1440 1441 1442 1443 1444 1445 1446 1447 1448 1449 1450 1451 1452 1453 1454 1455 1455 1455 1456 1456 1457 1458 1458 1459 1460 1461 1461 1462 1463 1463 1464 1465 1465 1466 1467 1468 1469 1470 1471 1472 1473 1474 1475
1425 1425 1426 1426 1426 1427 1427 1428 1428 1428 1429 1430 1430 1430 1431 1431 1432 1433 1434 1434 1435 1436 1437 1438 1439 1440 1441 1442 1442 1444 1445 1445 1446 1447 1448 1449 1450 1450 1451 1452 1453 1454 1454 1455 1455 1456 1457 1457 1458 1459 1460 1460 1461 1462 1462 1463 1464 1464 1465 1466 1467 1467 1468 1469 1470 1471 1472 1473 1474
1427 1427 1427 1427 1427 1428 1428 1429 1429 1430 1430 1430 1431 1432 1432 1433 1433 1434 1435 1435 1436 1437 1438 1439 1440 1441 1441 1442 1443 1444 1445 1446 1447 1447 1448 1449 1450 1450 1451 1452 1453 1453 1454 1454 1455 1455 1456 1457 1458 1459 1460 1460 1461 1461 1462 1462 1463 1464 1464 1465 1466 1467 1468 1469 1470 1470 1471 1472 1473
1428 1429 1429 1429 1429 1429 1430 1430 1430 1431 1431 1432 1432 1433 1434 1434 1435 1435 1436 1436 1437 1438 1439 1440 1440 1441 1442 1443 1443 1444 1445 1445 1446 1447 1448 1449 1449 1450 1450 1451 1452 1453 1453 1454 1455 1455 1456 1457 1458 1458 1459 1460 1460 1460 1461 1462 1462 1463 1464 1465 1465 1466 1467 1468 1469 1469 1470 1470 1471
1430 1430 1430 1430 1430 1431 1431 1431 1432 1432 1433 1433 1434 1434 1435 1435 1436 1436 1437 1437 1438 1438 1439 1440 1440 1441 1441 1442 1443 1444 1444 1445 1446 1447 1447 1448 1449 1450 1450 1451 1452 1452 1453 1454 1454 1455 1455 1456 1457 1457 1458 1459 1459 1460 1460 1461 1462 1462 1463 1464 1465 1465 1466 1467 1467 1468 1469 1470 1470
1431 1431 1432 1432 1432 1432 1433 1433 1433 1433 1434 1434 1435 1435 1435 1436 1436 1437 1437 1438 1438 1438 1439 1439 1440 1440 1441 1442 1443 1444 1444 1445 1446 1446 1447 1448 1448 1449 1450 1450 1451 1452 1452 1453 1454 1454 1455 1455 1456 1456 1457 1458 1458 1459 1460 1460 1461 1461 1462 1463 1464 1464 1465 1465 1466 1467 1468 1468 1469